Time,TemperatureF,DewpointF,PressureIn,WindDirection,WindDirectionDegrees,WindSpeedMPH,WindSpeedGustMPH,Humidity,HourlyPrecipIn,Conditions,Clouds,dailyrainin,SoftwareType,DateUTC
2013-02-09 00:08:00,3.2,0.0,30.45,NE,43,0.0,-999.0,87,-99.99,,,0.00,weatherlink.com 1.10,2013-02-09 05:08:00,
2013-02-09 00:24:00,3.1,0.0,30.45,NE,43,0.0,-999.0,87,-99.99,,,0.00,weatherlink.com 1.10,2013-02-09 05:24:00,
2013-02-09 00:38:00,3.0,0.0,30.46,NE,43,0.0,-999.0,87,-99.99,,,0.00,weatherlink.com 1.10,2013-02-09 05:38:00,
2013-02-09 00:53:00,3.4,0.0,30.45,NE,43,0.0,-999.0,87,-99.99,,,0.00,weatherlink.com 1.10,2013-02-09 05:53:00,
2013-02-09 01:09:00,3.5,1.0,30.46,NE,42,0.0,-999.0,88,-99.99,,,0.00,weatherlink.com 1.10,2013-02-09 06:09:00,
2013-02-09 01:23:00,3.8,1.0,30.45,NE,43,0.0,-999.0,88,-99.99,,,0.00,weatherlink.com 1.10,2013-02-09 06:23:00,
2013-02-09 01:38:00,3.8,1.0,30.44,NE,43,0.0,-999.0,88,-99.99,,,0.00,weatherlink.com 1.10,2013-02-09 06:38:00,
2013-02-09 01:54:00,4.2,1.0,30.44,NE,43,0.0,-999.0,88,-99.99,,,0.00,weatherlink.com 1.10,2013-02-09 06:54:00,
2013-02-09 02:08:00,4.6,2.0,30.43,NE,42,0.0,-999.0,88,-99.99,,,0.00,weatherlink.com 1.10,2013-02-09 07:08:00,
2013-02-09 02:23:00,5.0,2.0,30.43,NE,43,0.0,-999.0,88,-99.99,,,0.00,weatherlink.com 1.10,2013-02-09 07:23:00,
2013-02-09 02:39:00,5.3,3.0,30.44,NE,42,0.0,-999.0,88,-99.99,,,0.00,weatherlink.com 1.10,2013-02-09 07:39:00,
2013-02-09 02:53:00,5.3,3.0,30.44,NE,42,0.0,-999.0,88,-99.99,,,0.00,weatherlink.com 1.10,2013-02-09 07:53:00,
2013-02-09 03:08:00,5.7,3.0,30.44,NE,43,0.0,-999.0,88,-99.99,,,0.00,weatherlink.com 1.10,2013-02-09 08:08:00,
2013-02-09 03:23:00,5.8,3.0,30.44,NE,43,0.0,-999.0,88,-99.99,,,0.00,weatherlink.com 1.10,2013-02-09 08:23:00,
2013-02-09 03:38:00,5.5,3.0,30.43,NE,43,0.0,-999.0,88,-99.99,,,0.00,weatherlink.com 1.10,2013-02-09 08:38:00,
2013-02-09 03:54:00,5.3,3.0,30.43,NE,42,0.0,-999.0,88,-99.99,,,0.00,weatherlink.com 1.10,2013-02-09 08:54:00,
2013-02-09 04:08:00,4.9,2.0,30.43,NE,43,0.0,-999.0,87,-99.99,,,0.00,weatherlink.com 1.10,2013-02-09 09:08:00,
2013-02-09 04:23:00,4.9,2.0,30.43,NE,43,0.0,-999.0,88,-99.99,,,0.00,weatherlink.com 1.10,2013-02-09 09:23:00,
2013-02-09 04:38:00,5.0,2.0,30.43,NE,43,0.0,-999.0,88,-99.99,,,0.00,weatherlink.com 1.10,2013-02-09 09:38:00,
2013-02-09 04:53:00,4.4,2.0,30.42,NE,42,0.0,-999.0,88,-99.99,,,0.00,weatherlink.com 1.10,2013-02-09 09:53:00,
2013-02-09 05:08:00,4.1,1.0,30.42,NE,42,0.0,-999.0,88,-99.99,,,0.00,weatherlink.com 1.10,2013-02-09 10:08:00,
2013-02-09 05:24:00,6.4,4.0,30.41,NE,43,0.0,-999.0,90,-99.99,,,0.00,weatherlink.com 1.10,2013-02-09 10:24:00,
2013-02-09 05:38:00,9.6,7.0,30.40,NE,42,0.0,-999.0,90,-99.99,,,0.00,weatherlink.com 1.10,2013-02-09 10:38:00,
2013-02-09 05:54:00,11.2,8.0,30.39,SSE,165,0.0,-999.0,88,-99.99,,,0.00,weatherlink.com 1.10,2013-02-09 10:54:00,
2013-02-09 06:09:00,11.7,9.0,30.38,ENE,67,0.0,-999.0,87,-99.99,,,0.00,weatherlink.com 1.10,2013-02-09 11:09:00,
2013-02-09 06:23:00,12.3,9.0,30.38,ESE,103,0.0,-999.0,86,-99.99,,,0.00,weatherlink.com 1.10,2013-02-09 11:23:00,
2013-02-09 06:38:00,12.5,9.0,30.38,ENE,59,0.0,-999.0,84,-99.99,,,0.00,weatherlink.com 1.10,2013-02-09 11:38:00,
2013-02-09 06:53:00,12.6,9.0,30.37,SE,137,0.0,-999.0,84,-99.99,,,0.00,weatherlink.com 1.10,2013-02-09 11:53:00,
2013-02-09 07:08:00,13.1,9.0,30.38,South,177,0.0,-999.0,82,-99.99,,,0.00,weatherlink.com 1.10,2013-02-09 12:08:00,
2013-02-09 07:23:00,13.5,9.0,30.36,SW,219,0.0,-999.0,81,-99.99,,,0.00,weatherlink.com 1.10,2013-02-09 12:23:00,
2013-02-09 07:38:00,14.0,9.0,30.36,SW,236,0.0,-999.0,80,-99.99,,,0.00,weatherlink.com 1.10,2013-02-09 12:38:00,
2013-02-09 07:54:00,14.0,9.0,30.36,SSW,206,0.0,-999.0,80,-99.99,,,0.00,weatherlink.com 1.10,2013-02-09 12:54:00,
2013-02-09 08:09:00,13.9,9.0,30.36,SW,217,2.0,-999.0,80,-99.99,,,0.00,weatherlink.com 1.10,2013-02-09 13:09:00,
2013-02-09 08:24:00,13.7,9.0,30.35,SSW,202,2.0,-999.0,80,-99.99,,,0.00,weatherlink.com 1.10,2013-02-09 13:24:00,
2013-02-09 08:39:00,13.8,9.0,30.35,SW,232,0.0,-999.0,80,-99.99,,,0.00,weatherlink.com 1.10,2013-02-09 13:39:00,
2013-02-09 08:53:00,14.0,9.0,30.34,SW,223,1.0,-999.0,80,-99.99,,,0.00,weatherlink.com 1.10,2013-02-09 13:53:00,
2013-02-09 09:09:00,14.5,9.0,30.33,SW,215,1.0,-999.0,79,-99.99,,,0.00,weatherlink.com 1.10,2013-02-09 14:09:00,
2013-02-09 09:24:00,15.4,10.0,30.34,South,186,1.0,-999.0,80,-99.99,,,0.00,weatherlink.com 1.10,2013-02-09 14:24:00,
2013-02-09 09:39:00,16.7,11.0,30.34,SSW,195,4.0,-999.0,79,-99.99,,,0.00,weatherlink.com 1.10,2013-02-09 14:39:00,
2013-02-09 09:54:00,18.1,12.0,30.33,South,188,1.0,-999.0,78,-99.99,,,0.00,weatherlink.com 1.10,2013-02-09 14:54:00,
2013-02-09 10:09:00,18.3,13.0,30.33,SSW,200,2.0,-999.0,78,-99.99,,,0.00,weatherlink.com 1.10,2013-02-09 15:09:00,
2013-02-09 10:24:00,18.4,13.0,30.33,SSE,156,2.0,-999.0,79,-99.99,,,0.00,weatherlink.com 1.10,2013-02-09 15:24:00,
2013-02-09 10:39:00,19.6,14.0,30.32,SSW,196,2.0,-999.0,79,-99.99,,,0.00,weatherlink.com 1.10,2013-02-09 15:39:00,
2013-02-09 10:54:00,20.8,15.0,30.32,SW,225,2.0,-999.0,78,-99.99,,,0.00,weatherlink.com 1.10,2013-02-09 15:54:00,
2013-02-09 11:09:00,21.2,15.0,30.32,SW,221,1.0,-999.0,78,-99.99,,,0.00,weatherlink.com 1.10,2013-02-09 16:09:00,
2013-02-09 11:24:00,20.6,15.0,30.32,SW,215,4.0,-999.0,78,-99.99,,,0.00,weatherlink.com 1.10,2013-02-09 16:24:00,
2013-02-09 11:39:00,20.5,15.0,30.31,SSW,203,4.0,-999.0,79,-99.99,,,0.00,weatherlink.com 1.10,2013-02-09 16:39:00,
2013-02-09 11:54:00,20.7,15.0,30.30,SSW,206,4.0,-999.0,80,-99.99,,,0.00,weatherlink.com 1.10,2013-02-09 16:54:00,
2013-02-09 12:09:00,21.6,16.0,30.30,SSE,160,0.0,-999.0,80,-99.99,,,0.00,weatherlink.com 1.10,2013-02-09 17:09:00,
2013-02-09 12:24:00,22.4,17.0,30.28,SW,233,0.0,-999.0,78,-99.99,,,0.00,weatherlink.com 1.10,2013-02-09 17:24:00,
2013-02-09 12:39:00,22.8,17.0,30.27,SW,214,3.0,-999.0,77,-99.99,,,0.00,weatherlink.com 1.10,2013-02-09 17:39:00,
2013-02-09 12:53:00,23.6,17.0,30.26,WSW,248,4.0,-999.0,76,-99.99,,,0.00,weatherlink.com 1.10,2013-02-09 17:53:00,
2013-02-09 13:08:00,24.6,18.0,30.24,SSW,192,5.0,-999.0,75,-99.99,,,0.00,weatherlink.com 1.10,2013-02-09 18:08:00,
2013-02-09 13:23:00,24.7,18.0,30.24,SSW,194,1.0,-999.0,75,-99.99,,,0.00,weatherlink.com 1.10,2013-02-09 18:23:00,
2013-02-09 13:38:00,24.5,18.0,30.24,SSW,213,1.0,-999.0,76,-99.99,,,0.00,weatherlink.com 1.10,2013-02-09 18:38:00,
2013-02-09 13:53:00,25.2,19.0,30.24,SW,225,5.0,-999.0,76,-99.99,,,0.00,weatherlink.com 1.10,2013-02-09 18:53:00,
2013-02-09 14:08:00,25.9,19.0,30.22,SSW,192,3.0,-999.0,74,-99.99,,,0.00,weatherlink.com 1.10,2013-02-09 19:08:00,
2013-02-09 14:23:00,26.4,19.0,30.21,SSW,209,2.0,-999.0,74,-99.99,,,0.00,weatherlink.com 1.10,2013-02-09 19:23:00,
2013-02-09 14:38:00,27.9,20.0,30.20,SW,222,2.0,-999.0,71,-99.99,,,0.00,weatherlink.com 1.10,2013-02-09 19:38:00,
2013-02-09 14:53:00,29.2,19.0,30.19,SSW,209,1.0,-999.0,67,-99.99,,,0.00,weatherlink.com 1.10,2013-02-09 19:53:00,
2013-02-09 15:08:00,28.4,19.0,30.19,WSW,238,4.0,-999.0,67,-99.99,,,0.00,weatherlink.com 1.10,2013-02-09 20:08:00,
2013-02-09 15:23:00,28.3,18.0,30.18,South,180,4.0,-999.0,66,-99.99,,,0.00,weatherlink.com 1.10,2013-02-09 20:23:00,
2013-02-09 15:38:00,28.4,19.0,30.17,SW,226,1.0,-999.0,67,-99.99,,,0.00,weatherlink.com 1.10,2013-02-09 20:38:00,
2013-02-09 15:53:00,29.2,19.0,30.17,South,172,2.0,-999.0,67,-99.99,,,0.00,weatherlink.com 1.10,2013-02-09 20:53:00,
2013-02-09 16:08:00,29.6,19.0,30.17,SW,217,2.0,-999.0,66,-99.99,,,0.00,weatherlink.com 1.10,2013-02-09 21:08:00,
2013-02-09 16:23:00,29.2,19.0,30.17,WSW,242,4.0,-999.0,65,-99.99,,,0.00,weatherlink.com 1.10,2013-02-09 21:23:00,
2013-02-09 16:38:00,28.9,18.0,30.17,SW,214,1.0,-999.0,65,-99.99,,,0.00,weatherlink.com 1.10,2013-02-09 21:38:00,
2013-02-09 16:53:00,28.7,19.0,30.17,SSW,193,1.0,-999.0,67,-99.99,,,0.00,weatherlink.com 1.10,2013-02-09 21:53:00,
2013-02-09 17:08:00,28.1,19.0,30.16,SW,230,4.0,-999.0,69,-99.99,,,0.00,weatherlink.com 1.10,2013-02-09 22:08:00,
2013-02-09 17:23:00,27.6,19.0,30.16,South,180,1.0,-999.0,70,-99.99,,,0.00,weatherlink.com 1.10,2013-02-09 22:23:00,
2013-02-09 17:38:00,27.0,19.0,30.15,SSW,211,0.0,-999.0,73,-99.99,,,0.00,weatherlink.com 1.10,2013-02-09 22:38:00,
2013-02-09 17:53:00,26.6,19.0,30.15,SSW,198,0.0,-999.0,74,-99.99,,,0.00,weatherlink.com 1.10,2013-02-09 22:53:00,
2013-02-09 18:08:00,26.3,19.0,30.15,SW,219,1.0,-999.0,75,-99.99,,,0.00,weatherlink.com 1.10,2013-02-09 23:08:00,
2013-02-09 18:23:00,25.7,19.0,30.15,SSW,209,1.0,-999.0,76,-99.99,,,0.00,weatherlink.com 1.10,2013-02-09 23:23:00,
2013-02-09 18:38:00,25.2,19.0,30.16,South,175,2.0,-999.0,76,-99.99,,,0.00,weatherlink.com 1.10,2013-02-09 23:38:00,
2013-02-09 18:53:00,24.7,19.0,30.16,SSE,147,1.0,-999.0,78,-99.99,,,0.00,weatherlink.com 1.10,2013-02-09 23:53:00,
2013-02-09 19:08:00,24.5,19.0,30.15,ENE,71,0.0,-999.0,79,-99.99,,,0.00,weatherlink.com 1.10,2013-02-10 00:08:00,
2013-02-09 19:23:00,24.3,19.0,30.16,South,178,1.0,-999.0,79,-99.99,,,0.00,weatherlink.com 1.10,2013-02-10 00:23:00,
2013-02-09 19:38:00,24.1,19.0,30.16,South,173,1.0,-999.0,80,-99.99,,,0.00,weatherlink.com 1.10,2013-02-10 00:38:00,
2013-02-09 19:53:00,24.0,19.0,30.15,South,180,2.0,-999.0,81,-99.99,,,0.00,weatherlink.com 1.10,2013-02-10 00:53:00,
2013-02-09 20:08:00,24.0,19.0,30.15,SSW,213,2.0,-999.0,81,-99.99,,,0.00,weatherlink.com 1.10,2013-02-10 01:08:00,
2013-02-09 20:23:00,24.0,19.0,30.15,SSW,207,2.0,-999.0,81,-99.99,,,0.00,weatherlink.com 1.10,2013-02-10 01:23:00,
2013-02-09 20:38:00,23.9,19.0,30.16,SSW,203,5.0,-999.0,81,-99.99,,,0.00,weatherlink.com 1.10,2013-02-10 01:38:00,
2013-02-09 20:53:00,23.8,19.0,30.16,SSW,200,2.0,-999.0,81,-99.99,,,0.00,weatherlink.com 1.10,2013-02-10 01:53:00,
2013-02-09 21:08:00,23.7,19.0,30.15,SW,221,1.0,-999.0,82,-99.99,,,0.00,weatherlink.com 1.10,2013-02-10 02:08:00,
2013-02-09 21:23:00,23.6,19.0,30.16,SSW,195,2.0,-999.0,82,-99.99,,,0.00,weatherlink.com 1.10,2013-02-10 02:23:00,
2013-02-09 21:38:00,23.6,19.0,30.15,SSW,207,0.0,-999.0,83,-99.99,,,0.00,weatherlink.com 1.10,2013-02-10 02:38:00,
2013-02-09 21:53:00,23.6,19.0,30.16,SSE,150,0.0,-999.0,83,-99.99,,,0.00,weatherlink.com 1.10,2013-02-10 02:53:00,
2013-02-09 22:08:00,23.6,19.0,30.16,SSE,165,1.0,-999.0,83,-99.99,,,0.00,weatherlink.com 1.10,2013-02-10 03:08:00,
2013-02-09 22:23:00,23.6,19.0,30.16,NE,41,0.0,-999.0,83,-99.99,,,0.00,weatherlink.com 1.10,2013-02-10 03:23:00,
2013-02-09 22:38:00,23.5,19.0,30.16,South,180,0.0,-999.0,83,-99.99,,,0.00,weatherlink.com 1.10,2013-02-10 03:38:00,
2013-02-09 22:53:00,23.5,19.0,30.16,South,179,0.0,-999.0,83,-99.99,,,0.00,weatherlink.com 1.10,2013-02-10 03:53:00,
2013-02-09 23:08:00,23.4,19.0,30.16,SSE,153,0.0,-999.0,84,-99.99,,,0.00,weatherlink.com 1.10,2013-02-10 04:08:00,
2013-02-09 23:23:00,23.4,19.0,30.16,SSE,153,0.0,-999.0,84,-99.99,,,0.00,weatherlink.com 1.10,2013-02-10 04:23:00,
2013-02-09 23:38:00,23.4,19.0,30.16,SSW,200,0.0,-999.0,84,-99.99,,,0.00,weatherlink.com 1.10,2013-02-10 04:38:00,
2013-02-09 23:53:00,23.4,20.0,30.15,SSW,203,0.0,-999.0,85,-99.99,,,0.00,weatherlink.com 1.10,2013-02-10 04:53:00,